Regional Weather Roundup
Issued by NWS

Home | Current Version | Previous Version | Graphics & Text | Print | Product List | Glossary On
Versions: 1 2 3 4 5 6 7 8 9 10 11 12 13 14 15 16 17 18 19 20 21 22 23 24 25 26 27 28 29 30 31 32 33 34 35 36 37 38 39 40 41 42 43 44 45 46 47 48 49 50
000
ASUS43 KOAX 211302
RWRNE

WEATHER ROUNDUP FOR NEBRASKA
NATIONAL WEATHER SERVICE OMAHA NE
700 AM CST SAT JAN 21 2017

NOTES: SATELLITE DATA IS BEING USED TO AUGMENT CLOUD COVER ABOVE
       12000 FEET.
       "FAIR" INDICATES FEW OR NO CLOUDS BELOW 12,000 FEET WITH NO
       SIGNIFICANT WEATHER AND/OR OBSTRUCTIONS TO VISIBILITY.

  * THESE STATIONS DO NOT REPORT WEATHER SUCH AS RAIN...SNOW OR FOG.

NEZ001>004-019>022-054>056-211400-
NEBRASKA PANHANDLE

CITY           SKY/WX    TMP DP  RH WIND       PRES   REMARKS
SCOTTSBLUFF    CLEAR     21  17  84 CALM      29.38S
ALLIANCE       CLEAR     15  12  88 W5        29.37S WCI   8
CHADRON        CLEAR     25  21  85 SW7       29.39R WCI  17
KIMBALL        CLEAR     21  19  93 W5        29.38R WCI  15
SIDNEY         CLEAR     22  17  81 W3        29.39R
$$

NEZ057>060-069>072-079>082-211400-
SOUTHWEST NEBRASKA

CITY           SKY/WX    TMP DP  RH WIND       PRES   REMARKS
NORTH PLATTE   CLEAR     23  21  92 W7        29.40R FOG     WCI  15
IMPERIAL       CLEAR     27  23  85 W8        29.42R WCI  19
LEXINGTON      CLEAR     30  29  94 CALM      29.41R
MCCOOK         CLEAR     28  27  96 W9        29.44R WCI  19
OGALLALA       CLEAR     26  24  93 W6        29.41R WCI  19
$$

NEZ005>010-023>029-035>040-094-211400-
NORTH CENTRAL NEBRASKA

CITY           SKY/WX    TMP DP  RH WIND       PRES   REMARKS
VALENTINE      CLOUDY    32  29  88 SW9       29.35S WCI  24
AINSWORTH      MOCLDY    34  32  93 W5        29.35S WCI  30
BROKEN BOW     CLOUDY    33  31  92 CALM      29.38R
O`NEILL        PTCLDY    32  31  98 W5        29.36S WCI  27
ORD            PTCLDY    32  30  92 CALM      29.37S
THEDFORD       PTCLDY    32  32  99 W6        29.37S WCI  27
$$

NEZ041-046>049-061>064-073>077-083>087-211400-
SOUTH CENTRAL NEBRASKA

CITY           SKY/WX    TMP DP  RH WIND       PRES   REMARKS
GRAND ISLAND   PTCLDY    32  31  96 SW7       29.40R WCI  26
AURORA         PTCLDY    33  33 100 W7        29.41R WCI  27
HASTINGS       CLEAR     34  31  88 W7        29.42R WCI  28
HEBRON         PTCLDY    32  32 100 SW7       29.44R WCI  26
HOLDREGE       CLEAR     31  30  96 SW5       29.42R WCI  26
KEARNEY *      CLEAR     32 -17  11 SW9       29.41R WCI  24
YORK           CLOUDY    32  32 100 W7        29.41R WCI  26
$$

NEZ011>018-030>034-042>045-211400-
NORTHEAST NEBRASKA

CITY           SKY/WX    TMP DP  RH WIND       PRES   REMARKS
NORFOLK        PTCLDY    33  31  92 W6        29.36S WCI  28
ALBION         PTCLDY   N/A N/A N/A NW3       29.38R
BLAIR          FOG       38  37  99 SW6       29.38R VSB 1/4 WCI  33
FREMONT        FOG       36  36 100 W6        29.40R VSB 1/2 WCI  31
TEKAMAH        FOG       37  36  96 SW9       29.39R VSB 1/2 WCI  30
WAYNE          CLOUDY    37  37  99 W10       29.36R WCI  30
$$

NEZ050>053-065>068-078-088>093-211400-
SOUTHEAST NEBRASKA

CITY           SKY/WX    TMP DP  RH WIND       PRES   REMARKS
LINCOLN        MOCLDY    35  34  96 SW5       29.43R FOG     WCI  31
OMAHA EPPLEY   CLOUDY    40  37  89 SW5       29.40R FOG
BEATRICE       FOG       32  32 100 W6        29.44R VSB 3/4 WCI  27
FALLS CITY     CLOUDY    42  41  96 W10       29.44R
NEBRASKA CITY  SNOW      38  38 100 SW10G17   29.41S VSB 1/4 WCI  30
PLATTSMOUTH    PTCLDY    37  36  94 SW7       29.40R FOG     WCI  32
$$

NEZ044-045-051>053-067-211400-
OMAHA AREA

CITY           SKY/WX    TMP DP  RH WIND       PRES   REMARKS
OMAHA EPPLEY   CLOUDY    40  37  89 SW5       29.40R FOG
BLAIR          FOG       38  37  99 SW6       29.38R VSB 1/4 WCI  33
FREMONT        FOG       36  36 100 W6        29.40R VSB 1/2 WCI  31
MILLARD        CLOUDY    41  40  97 CALM      29.40R FOG
PLATTSMOUTH    PTCLDY    37  36  94 SW7       29.40R FOG     WCI  32
WAHOO          FAIR      35  34  97 SW5       29.40R FOG     WCI  31
$$




USA.gov is the U.S. government's official web portal to all federal, state and local government web resources and services.